[[{"header":{"parameterUnit":"m.s-1","parameterCategory":1,"la1":30.2991,"la2":30.254,"lo1":-89.0895,"lo2":-89.0444,"dy":0.0017,"dx":0.0017,"nx":28,"ny":28,"refTime":"2025-01-20T09:00:00:Z","depth":0,"parameterNumber":2,"parameterNumberName":"U-component_of_WINDS"},"data":[0,0,0,0,0,0,0,0,0,0,0,0,0,0,0,0,0,0,0,0,0,0,0,0,0,0,0,0,0,0,0,0,0,0,0,0,0,0,0,0,0,0,0,0,0,0,0,0,0,0,0,0,0,0,0,0,0,0,-3.9323,-3.9325,0,-3.9469,-3.9471,-3.9473,-3.9431,-3.9428,-3.9425,-3.9422,-3.9571,-3.9578,-3.9585,0,0,0,0,0,0,0,0,0,0,0,0,0,-3.9007,-3.9013,-3.9323,-3.9325,-3.9327,-3.9469,-3.9471,-3.9473,-3.9431,-3.9428,-3.9424,-3.9421,-3.9569,-3.9577,-3.9585,0,0,0,0,0,0,0,0,0,0,0,0,0,-3.9148,-3.9015,-3.9323,-3.9323,-3.9325,-3.9469,-3.9471,-3.9474,-3.9432,-3.9428,-3.9423,-3.9419,-3.9566,-3.9576,-3.9586,-3.9739,0,0,-3.9617,-3.9622,0,0,0,0,0,0,0,0,-3.914,-3.916,-3.9321,-3.9323,-3.9325,-3.9427,-3.9414,-3.9563,-3.9433,-3.9391,-3.9422,-3.9417,-3.9527,-3.954,-3.9577,-3.9746,-3.9752,-3.9618,-3.9624,-3.9629,-3.9632,0,0,0,0,0,0,0,-3.9131,-3.9153,-3.9381,-3.9324,-3.9326,-3.9316,-3.9331,-3.9442,-3.9483,-3.9395,-3.9392,-3.941,-3.9527,-3.9568,-3.9581,-3.9755,-3.9618,-3.9627,-3.9633,-3.9637,-4.0056,-4.006,0,0,0,0,0,0,-3.9119,-3.9145,-3.9376,-3.9385,-3.922,-3.9325,-3.9342,-3.9399,-3.9481,-3.9489,-3.9413,-3.9407,-3.9553,-3.9569,-3.9586,-3.9771,-3.9629,-3.9638,-3.9644,-4.0051,-4.0057,-4.0062,0,0,0,0,0,0,-3.9113,-3.914,-3.9371,-3.9265,-3.9293,-3.9335,-3.94,-3.9404,-3.9445,-3.9496,-3.9502,-3.9448,-3.955,-3.9571,-3.9701,-3.9775,-3.9643,-3.9652,-4.0045,-4.0053,-4.0059,-4.0141,0,0,0,0,0,0,-3.9104,-3.9138,-3.9197,-3.9266,-3.9299,-3.9484,-3.9404,-3.941,-3.9463,-3.9456,-3.9529,-3.9537,-3.9548,-3.9686,-3.9711,-3.9787,-3.966,-4.0038,-4.0048,-4.0057,-4.0132,-4.015,-4.0166,0,0,0,0,0,-3.9093,-3.9214,-3.92,-3.9228,-3.9374,-3.9489,-3.9507,-3.9517,-3.9469,-3.9528,-3.956,-3.9535,-3.9762,-3.97,-3.9728,-3.9807,-4.0034,-4.0045,-4.0056,-4.0124,-4.0147,-4.0166,0,0,0,0,0,0,-3.9153,-3.9223,-3.9209,-3.9356,-3.9417,-3.9481,-3.9557,-3.9541,-3.9616,-3.9607,-3.9615,-3.9632,-3.9766,-3.9799,-3.9728,-3.9959,-3.9891,-3.9908,-3.9933,-3.9955,-3.9972,-3.9962,-3.9668,0,0,0,0,0,-3.9183,-3.9271,-3.9327,-3.9452,-3.9483,-3.9515,-3.9565,-3.9567,-3.9631,-3.9656,-3.9698,-3.976,-3.9845,-3.9901,-3.9983,-4.0136,-4.0151,-4.0204,-4.0221,-4.0235,-4.025,-4.0334,-4.0358,-4.0099,-4.0099,-4.0099,0,0,-3.9247,-3.9296,-3.9351,-3.9466,-3.9513,-3.9603,-3.9537,-3.9635,-3.9703,-3.9671,-3.9797,-3.9829,-3.9899,-4.0041,-4.0106,-4.0073,-4.0325,-4.0249,-4.026,-4.0268,-4.0348,-4.0373,-4.0394,-4.0107,-4.0106,-4.0104,0,0,-3.941,-3.9456,-3.9565,-3.9613,-3.9685,-3.9705,-3.9731,-3.9799,-3.9819,-3.9945,-3.9923,-4.0002,-4.0149,-4.02,-4.0245,-4.0426,-4.0405,-4.0452,-4.0542,-4.0624,-4.0644,-4.0662,-4.0728,-4.0751,-4.0467,-4.0467,-4.0467,0,-3.948,-3.9616,-3.9623,-3.9724,-3.9775,-3.9749,-3.986,-3.9907,-4.0002,-4.0037,-3.9999,-4.0183,-4.0228,-4.0382,-4.0426,-4.0462,-4.0493,-4.0445,-4.064,-4.0659,-4.0676,-4.0738,-4.0763,-4.0472,-4.0472,-4.0471,-4.0471,0,-3.97,-3.9794,-3.9874,-3.9966,-4.0026,-4.0131,-4.0154,-4.0213,-4.0209,-4.0233,-4.0362,-4.0414,-4.0506,-4.0542,-4.054,-4.0696,-4.0673,-4.0638,-4.057,-4.0706,-4.0765,-4.0789,-4.048,-4.0478,-4.0476,-4.0475,0,0,-3.9907,-4.0001,-4.003,-4.0072,-4.0149,-4.0222,-4.0325,-4.0415,-4.0466,-4.0532,-4.062,-4.0744,-4.0711,-4.0762,-4.0764,-4.0836,-4.0976,-4.0791,-4.0793,-4.0825,-4.1153,-4.118,-4.1208,-4.0962,-4.0967,-4.097,-4.1147,0,-4.0078,-4.0261,-4.027,-4.0436,-4.0524,-4.05,-4.059,-4.0647,-4.0671,-4.0749,-4.0775,-4.0864,-4.0813,-4.0844,-4.0913,-4.0945,-4.1043,-4.0932,-4.1044,-4.1048,-4.103,-4.1239,-4.1269,-4.1433,-4.117,-4.1174,-4.1177,0,-4.0303,-4.0376,-4.0551,-4.0615,-4.0652,-4.0733,-4.0816,-4.089,-4.0953,-4.0966,-4.1023,-4.1015,-4.112,-4.1047,-4.1193,-4.1117,-4.1163,-4.1185,-4.1192,-4.1204,-4.1122,-4.1258,-4.1485,-4.1511,-4.1213,-4.121,-4.1207,0,-4.0438,-4.058,-4.0703,-4.0739,-4.0817,-4.0875,-4.0909,-4.0968,-4.1021,-4.1093,-4.1128,-4.121,-4.1256,-4.1321,-4.1335,-4.128,-4.1481,-4.1409,-4.1495,-4.1495,-4.1541,-4.1538,-4.178,-4.1567,-4.1567,-4.1566,-4.1566,0,-4.063,-4.0738,-4.0765,-4.0842,-4.0962,-4.097,-4.1089,-4.112,-4.1172,-4.1254,-4.1237,-4.1313,-4.1327,-4.1406,-4.1418,-4.1537,-4.1557,-4.1571,-4.1573,-4.1574,-4.1572,-4.1606,-4.1595,-4.1573,-4.1571,-4.157,-4.1569,0,-4.0803,-4.0825,-4.0958,-4.102,-4.1038,-4.1125,-4.1177,-4.125,-4.1272,-4.1375,-4.1399,-4.1434,-4.1526,-4.1546,-4.1656,-4.1663,-4.1806,-4.1796,-4.1785,-4.1785,-4.187,-4.1863,-4.2144,-4.2182,-4.1943,-4.1945,-4.1947,0,-4.0925,-4.1008,-4.1078,-4.1132,-4.1169,-4.1255,-4.1309,-4.1319,-4.1376,-4.1454,-4.1518,-4.1608,-4.1681,-4.183,-4.1865,-4.1948,-4.1941,-4.2034,-4.1954,-4.1952,-4.1944,-4.194,-4.1949,-4.205,-4.2053,-4.2055,-4.2056,0,-4.1139,-4.1145,-4.1224,-4.1307,-4.1372,-4.1437,-4.15,-4.1544,-4.1562,-4.1627,-4.1721,-4.1778,-4.189,-4.198,-4.2064,-4.2099,-4.2082,-4.2081,-4.2105,-4.2108,-4.2099,-4.2106,-4.1829,-4.2075,-4.2073,-4.2072,-4.2071,-4.207,-4.1291,-4.1364,-4.1425,-4.1513,-4.1561,-4.1619,-4.1691,-4.1721,-4.18,-4.1892,-4.1892,-4.1996,-4.2056,-4.2166,-4.2206,-4.2287,-4.2258,-4.2293,-4.2303,-4.2312,-4.232,-4.2084,-4.2302,-4.2301,-4.2301,-4.23,-4.23,0,-4.1506,-4.1544,-4.1624,-4.1712,-4.1781,-4.1757,-4.1825,-4.1884,-4.1975,-4.2033,-4.2105,-4.2213,-4.23,-4.2341,-4.2427,-4.2483,-4.2477,-4.2506,-4.2503,-4.2511,-4.2341,-4.2311,-4.2509,-4.2509,-4.2509,-4.2509,-4.2509,-4.2509,-4.1626,-4.1748,-4.1762,-4.1907,-4.1943,-4.2045,-4.2085,-4.2139,-4.2185,-4.2307,-4.2379,-4.2404,-4.2455,-4.2544,-4.2623,-4.2632,-4.2665,-4.2698,-4.2704,-4.2544,-4.2523,-4.2503,-4.2476,-4.2705,-4.2705,-4.2868,-4.2869,-4.2871]},{"header":{"parameterUnit":"m.s-1","parameterCategory":1,"la1":30.2991,"la2":30.254,"lo1":-89.0895,"lo2":-89.0444,"dy":0.0017,"dx":0.0017,"nx":28,"ny":28,"refTime":"2025-01-20T09:00:00:Z","depth":0,"parameterNumber":3,"parameterNumberName":"V-component_of_WINDS"},"data":[0,0,0,0,0,0,0,0,0,0,0,0,0,0,0,0,0,0,0,0,0,0,0,0,0,0,0,0,0,0,0,0,0,0,0,0,0,0,0,0,0,0,0,0,0,0,0,0,0,0,0,0,0,0,0,0,0,0,-9.7372,-9.7374,0,-9.7516,-9.7517,-9.7519,-9.7413,-9.7408,-9.7403,-9.7399,-9.7537,-9.7545,-9.7553,0,0,0,0,0,0,0,0,0,0,0,0,0,-9.6996,-9.7004,-9.7372,-9.7374,-9.7376,-9.7515,-9.7517,-9.7519,-9.7413,-9.7408,-9.7402,-9.7397,-9.7535,-9.7544,-9.7554,0,0,0,0,0,0,0,0,0,0,0,0,0,-9.7151,-9.7006,-9.7372,-9.734,-9.7339,-9.7515,-9.7517,-9.752,-9.7415,-9.7408,-9.7401,-9.7394,-9.7532,-9.7543,-9.7555,-9.7768,0,0,-9.7592,-9.7597,0,0,0,0,0,0,0,0,-9.7143,-9.7165,-9.7343,-9.7342,-9.7341,-9.7439,-9.7435,-9.7603,-9.7416,-9.7386,-9.7399,-9.7391,-9.751,-9.7523,-9.7565,-9.7775,-9.778,-9.7593,-9.76,-9.7605,-9.7609,0,0,0,0,0,0,0,-9.7132,-9.7158,-9.7428,-9.7345,-9.7345,-9.7315,-9.7329,-9.7467,-9.7484,-9.7388,-9.738,-9.7399,-9.7508,-9.7554,-9.7567,-9.7783,-9.7593,-9.7603,-9.7611,-9.7615,-9.8171,-9.8178,0,0,0,0,0,0,-9.7126,-9.715,-9.7424,-9.7433,-9.7223,-9.7328,-9.7344,-9.7415,-9.7483,-9.7487,-9.7405,-9.7394,-9.7537,-9.7554,-9.7572,-9.7825,-9.7605,-9.7616,-9.7623,-9.8164,-9.8173,-9.8181,0,0,0,0,0,0,-9.7118,-9.7151,-9.7418,-9.729,-9.7321,-9.7342,-9.7422,-9.7421,-9.7467,-9.7496,-9.7498,-9.7449,-9.7532,-9.7555,-9.772,-9.7828,-9.7622,-9.7633,-9.8155,-9.8167,-9.8177,-9.8333,0,0,0,0,0,0,-9.7108,-9.7149,-9.7233,-9.7293,-9.7329,-9.7568,-9.7429,-9.7429,-9.7489,-9.7476,-9.7538,-9.7542,-9.7528,-9.7703,-9.7732,-9.7841,-9.7642,-9.8145,-9.816,-9.8173,-9.8319,-9.8349,-9.8374,0,0,0,0,0,-9.7095,-9.727,-9.7238,-9.7271,-9.7434,-9.7574,-9.7595,-9.7578,-9.7498,-9.7581,-9.7599,-9.754,-9.7812,-9.7721,-9.7753,-9.7867,-9.8138,-9.8156,-9.8172,-9.8306,-9.8343,-9.8374,0,0,0,0,0,0,-9.7219,-9.7277,-9.7242,-9.7442,-9.7505,-9.7556,-9.766,-9.7618,-9.7702,-9.7685,-9.7658,-9.7673,-9.7847,-9.7873,-9.7771,-9.8075,-9.7962,-9.7986,-9.8052,-9.8087,-9.8115,-9.8105,-9.7652,0,0,0,0,0,-9.7271,-9.7383,-9.7425,-9.7597,-9.7631,-9.7641,-9.7701,-9.7683,-9.7745,-9.777,-9.78,-9.786,-9.7958,-9.8024,-9.8117,-9.8321,-9.8332,-9.8415,-9.8443,-9.8466,-9.8487,-9.8595,-9.8632,-9.8237,-9.8237,-9.8237,0,0,-9.7377,-9.7422,-9.7494,-9.7624,-9.767,-9.7783,-9.7663,-9.7788,-9.7871,-9.7787,-9.7946,-9.7971,-9.8035,-9.8221,-9.8304,-9.8248,-9.8598,-9.8487,-9.8505,-9.8514,-9.8617,-9.8654,-9.8687,-9.8249,-9.8247,-9.8245,0,0,-9.7628,-9.7675,-9.7823,-9.7872,-9.7944,-9.7949,-9.7985,-9.8043,-9.8057,-9.8216,-9.8155,-9.8251,-9.8422,-9.8471,-9.8518,-9.8786,-9.8734,-9.8816,-9.8962,-9.9068,-9.9099,-9.9127,-9.9221,-9.9256,-9.8837,-9.8838,-9.8838,0,-9.775,-9.7923,-9.7904,-9.8034,-9.8092,-9.8023,-9.8171,-9.8218,-9.8316,-9.8356,-9.8292,-9.8505,-9.8544,-9.8739,-9.8805,-9.8845,-9.8883,-9.881,-9.9097,-9.9124,-9.9149,-9.9239,-9.9275,-9.8847,-9.8846,-9.8845,-9.8844,0,-9.8068,-9.8188,-9.8298,-9.8398,-9.8467,-9.8606,-9.8605,-9.8677,-9.8652,-9.8663,-9.8824,-9.8868,-9.8968,-9.9013,-9.8989,-9.9204,-9.9167,-9.9101,-9.8986,-9.9197,-9.9281,-9.9315,-9.8861,-9.8858,-9.8855,-9.8852,0,0,-9.8404,-9.8491,-9.8532,-9.8575,-9.8649,-9.8739,-9.8873,-9.8973,-9.9035,-9.9103,-9.9213,-9.9359,-9.9298,-9.9351,-9.9331,-9.9425,-9.9633,-9.9346,-9.9347,-9.9398,-9.9871,-9.9921,-9.9962,-9.9598,-9.9605,-9.961,-9.9866,0,-9.8659,-9.8896,-9.8882,-9.9103,-9.9212,-9.9148,-9.9264,-9.932,-9.9333,-9.9424,-9.9436,-9.954,-9.9452,-9.9483,-9.9573,-9.9589,-9.9728,-9.957,-9.9698,-9.9703,-9.9685,-10.0006,-10.0059,-10.0299,-9.9898,-9.9904,-9.9908,0,-9.8989,-9.9073,-9.9306,-9.9362,-9.9407,-9.9512,-9.9602,-9.9691,-9.9751,-9.9754,-9.9814,-9.9778,-9.9909,-9.9791,-9.997,-9.9864,-9.9914,-9.993,-9.9939,-9.995,-9.9819,-10.0026,-10.0375,-10.0411,-9.996,-9.9956,-9.9952,0,-9.9211,-9.938,-9.9541,-9.958,-9.965,-9.9725,-9.9757,-9.9811,-9.9872,-9.9948,-9.9987,-10.0077,-10.0127,-10.0196,-10.0184,-10.01,-10.0366,-10.0248,-10.037,-10.0371,-10.043,-10.0426,-10.0792,-10.0463,-10.0462,-10.0461,-10.0461,0,-9.9498,-9.9642,-9.9642,-9.9741,-9.99,-9.988,-10.0037,-10.006,-10.0108,-10.0208,-10.0156,-10.025,-10.0229,-10.0322,-10.0313,-10.0462,-10.0484,-10.0488,-10.0484,-10.0493,-10.0493,-10.0526,-10.0509,-10.0471,-10.0469,-10.0467,-10.0465,0,-9.9772,-9.9778,-9.9949,-10.0001,-10.0018,-10.0133,-10.0175,-10.0267,-10.0275,-10.0402,-10.043,-10.0442,-10.0548,-10.0544,-10.0663,-10.0657,-10.084,-10.0816,-10.0821,-10.0816,-10.0939,-10.0927,-10.1339,-10.1391,-10.1028,-10.1032,-10.1034,0,-9.9955,-10.0066,-10.013,-10.0195,-10.0233,-10.0337,-10.0399,-10.0382,-10.0448,-10.0525,-10.0607,-10.0709,-10.079,-10.0961,-10.0978,-10.1069,-10.1047,-10.1185,-10.106,-10.1065,-10.1048,-10.1042,-10.1052,-10.1209,-10.1213,-10.1217,-10.1219,0,-10.028,-10.0277,-10.037,-10.0464,-10.054,-10.0613,-10.0679,-10.0734,-10.0724,-10.08,-10.0909,-10.0972,-10.1095,-10.1195,-10.1282,-10.131,-10.1263,-10.1259,-10.1291,-10.1302,-10.13,-10.1303,-10.0888,-10.1249,-10.1246,-10.1244,-10.1243,-10.1241,-10.0514,-10.0608,-10.0669,-10.0774,-10.0822,-10.0885,-10.0974,-10.0994,-10.1086,-10.1186,-10.1169,-10.1292,-10.1346,-10.1457,-10.1494,-10.1587,-10.1537,-10.1585,-10.1597,-10.161,-10.1624,-10.1286,-10.1602,-10.1601,-10.1601,-10.16,-10.1599,0,-10.0835,-10.0871,-10.0968,-10.1063,-10.1145,-10.1095,-10.1166,-10.1236,-10.1346,-10.1402,-10.1483,-10.1607,-10.1704,-10.1729,-10.1821,-10.189,-10.1871,-10.1915,-10.191,-10.1917,-10.1663,-10.1625,-10.1929,-10.1929,-10.1929,-10.1929,-10.1929,-10.1929,-10.1012,-10.117,-10.1173,-10.1353,-10.1386,-10.1508,-10.1552,-10.1608,-10.1653,-10.1796,-10.1877,-10.1893,-10.1936,-10.2031,-10.2116,-10.2121,-10.2157,-10.221,-10.2206,-10.1968,-10.1935,-10.1903,-10.1868,-10.2218,-10.2218,-10.2452,-10.2454,-10.2456]}]]